sat.trackr.live / text

‹ back to catalog

STARLINK-33716

NORAD 63486 · 2025-070AC

PAYLOAD ACTIVE UNKNOWN

§ Identity

Operator
Country
US
Launch date
2025-04-06
Launch site
AFETR
Launch vehicle
Mass (kg)
RCS (m²)

Purposes: comms

External: N2YO · Heavens-Above · Gunter

§ Orbital elements

Epoch: 2026-09-20T23:12:50.325696Z

Period
94.27 min
Inclination
43.0005°
Eccentricity
0.0004302
Mean motion
15.27582657 rev/d
Perigee alt
480.1 km
Apogee alt
486.0 km
Semi-major
6,861.2 km
B*
3.2390e-4
RAAN
236.7889°
Arg perigee
298.8376°
Mean anomaly
61.2043°
Rev number
8,284

§ Raw data

STARLINK-337161 63486U 25070AC  26263.96724914  .00008663  00000+0  32390-3 0  99942 63486  43.0005 236.7889 0004302 298.8376  61.2043 15.27582657 82842

JSON: /api/v1/satellites/63486 · /tle

For live sub-satellite position, see the globe view (requires WebGL).

§ Visibility from observer

Set your observer location to see the next 7 days of passes ≥ 10°. The values pass through the URL so the page stays shareable.

No JS? Fill the form by hand. The geolocation button needs JavaScript.